OpenBCM V1.07b12 (Linux)

Packet Radio Mailbox

SR1BSZ

[Szczecin_PL JO73GK]

 Login: GUEST





  
I0OJJ  > KEPS     31.10.25 07:31z 316 Lines 15004 Bytes #13 (0) @ AMSAT
BID : ORB25304.1
Read: GUEST
Subj: 2Line Orbital Elements 25304.AMSAT
Path: SR1BSZ<EA2RCF<I0OJJ
Sent: 251031/0021z @:I0OJJ.ITA.EU [Rome] obcm1.08-11-2-gbfe9
From: I0OJJ @ I0OJJ.ITA.EU (Gustavo)
To:   KEPS @ AMSAT
X-Info: This message was generated automatically


QST de W1STR

AMSAT Orbital Elements for Amateur Satellites in TLE Format
From Orbital Analysis Office
New England Sci-Tech STEM Education Center
Natick MA October 31, 2025
To all radio amateurs


These element sets describe the orbits of various satellites 
in use by the amateur radio community. For details see:
www.amsat.org/keplerian-elements-formats/

A daily update of element sets is available at:
www.amsat.org/tle/daily-bulletin.txt
or without bulletin text:
www.amsat.org/tle/dailytle.txt


AO-07
1 07530U 74089B   25303.00820066 -.00000033  00000-0  84074-4 0  9992
2 07530 101.9983 308.8120 0012043 209.5646 222.5522 12.53692818331677
UO-11
1 14781U 84021B   25303.68046264  .00002072  00000-0  22095-3 0  9997
2 14781  97.7745 267.4003 0006563 213.6232 146.4570 14.89921410222948
AO-27
1 22825U 93061C   25303.15406075  .00000169  00000-0  81324-4 0  9997
2 22825  98.7204   5.3055 0009314  59.8128 300.3976 14.30852446674102
FO-29
1 24278U 96046B   25303.22548520 -.00000009  00000-0  28678-4 0  9994
2 24278  98.5505 178.1918 0349552 333.0897  25.2481 13.53258622442068
NOAA-15
1 25338U 98030A   25303.77911617  .00000234  00000-0  11360-3 0  9996
2 25338  98.5268 325.4133 0009253 303.3975  56.6320 14.27044358428577
GO-32
1 25397U 98043D   25303.22450058  .00000151  00000-0  85415-4 0  9993
2 25397  98.9882 285.4400 0001926 127.7155 232.4198 14.24358419418598
ISS
1 25544U 98067A   25303.58586494  .00019707  00000-0  35695-3 0  9997
2 25544  51.6344 356.1236 0004906 357.8004   2.2962 15.49627707536167
NO-44
1 26931U 01043C   25303.84755211  .00000286  00000-0  13772-3 0  9994
2 26931  67.0486 117.3961 0007155 272.3866  87.6417 14.31816526257615
SO-50
1 27607U 02058C   25303.22119209  .00001825  00000-0  23783-3 0  9998
2 27607  64.5503 120.0747 0069423 304.6403  54.8170 14.82144993230366
CO-55
1 27844U 03031E   25303.24143168  .00000498  00000-0  23510-3 0  9999
2 27844  98.6784 309.7029 0010457 129.2879 230.9229 14.24123661158948
CO-57
1 27848U 03031J   25302.97605844  .00000410  00000-0  19946-3 0  9998
2 27848  98.6812 309.3373 0010069 146.4241 213.7578 14.23439813158624
RS-22
1 27939U 03042A   25303.85680242  .00001849  00000-0  29747-3 0  9991
2 27939  98.3373 116.9224 0010273 276.9733 216.6462 14.72782045181782
CO-58
1 28895U 05043F   25303.20230954  .00002975  00000-0  48576-3 0  9998
2 28895  98.2695  89.5601 0013833 211.4045 148.6337 14.71627276 67915
CO-65
1 32785U 08021C   25303.86811639  .00009510  00000-0  65105-3 0  9996
2 32785  97.8042 276.3860 0011600  87.3776 272.8778 15.06251668950639
CO-66
1 32791U 08021J   25302.91812434  .00023451  00000-0  99322-3 0  9990
2 32791  97.7424 286.6337 0005750  58.7933 301.3865 15.23153570952121
RS-30
1 32953U 08025A   25303.81548887  .00000030  00000-0  13998-3 0  9995
2 32953  82.5000 138.1233 0019960  92.1043 268.2323 12.43169842791197
NOAA-19
1 33591U 09005A   25303.76736986  .00000094  00000-0  74084-4 0  9990
2 33591  98.9821   9.1692 0013053 322.5700  37.4562 14.13422457862071
SRMSAT
1 37841U 11058D   25302.92570738  .00000507  00000-0  13171-3 0  9999
2 37841  19.9733  13.1184 0011638 189.9440 325.9885 14.11488613725246
ZACUBE-1
1 39417U 13066B   25303.86269991  .00008326  00000-0  69057-3 0  9992
2 39417  97.7973 260.3833 0041401 294.6303  65.0610 14.98393197646356
Delfi-N3xt
1 39428U 13066N   25303.73359295  .00012117  00000-0  11635-2 0  9998
2 39428  97.8301 219.9291 0078576 248.1247 111.1602 14.90882325640385
GOMX-1
1 39430U 13066Q   25303.83720381  .00003044  00000-0  46922-3 0  9997
2 39430  97.6643 153.6458 0132423  93.5366 268.0996 14.68304648636240
LO-74
1 39440U 13066AA  25303.80651463  .00007634  00000-0  74430-3 0  9993
2 39440  97.8636 247.5725 0062483  67.6525 293.1299 14.91265716642770
AO-73
1 39444U 13066AE  25303.85023993  .00014925  00000-0  10402-2 0  9992
2 39444  97.8002 266.6499 0037769 262.5723  97.1210 15.04936585645116
DTUSAT-2
1 40030U 14033W   25303.89612683  .00013837  00000-0  83806-3 0  9994
2 40030  98.0719 282.9934 0006961 305.2595  54.7981 15.10705432618019
EO-80
1 40032U 14033Y   25303.70999192  .00011809  00000-0  71495-3 0  9997
2 40032  98.0599 282.2524 0006294 227.3130 132.7568 15.10766010617963
LILACSAT-2
1 40908U 15049K   25303.82791243  .00021996  00000-0  50057-3 0  9996
2 40908  97.4976 327.9340 0008719  18.8938 341.2631 15.42948474560284
IO-86
1 40931U 15052B   25151.18580175  .00001241  00000-0  78118-4 0  9996
2 40931   6.0006  24.0987 0012733 338.8432  21.1169 14.78805930523159
Horyu-4
1 41340U 16012D   25303.29272699  .00055344  00000-0  10990-2 0  9993
2 41340  30.9947 247.1601 0003584 148.6898 211.3964 15.45701303534817
Lapan A3
1 41603U 16040E   25303.89306750  .00006651  00000-0  22361-3 0  9991
2 41603  97.1434 303.0237 0012640 112.9441 247.3136 15.31055628519701
CAS-2T
1 41847U 16066G   25303.17940402  .00002208  00000-0  31794-3 0  9992
2 41847  98.4078  16.3456 0345506 106.8876 257.0497 14.43969000471592
TechnoSat
1 42829U 17042E   25303.25927887  .00006273  00000-0  46969-3 0  9995
2 42829  97.4048 105.3603 0019176 155.4389 204.7754 15.02907090452144
AO-91
1 43017U 17073E   25303.18754484  .00015190  00000-0  73045-3 0  9995
2 43017  97.4998 170.4053 0165956  40.1739 321.1619 15.07473772430675
S-Net D
1 43186U 18014G   25303.26411072  .00009165  00000-0  51392-3 0  9996
2 43186  97.5477 204.7293 0010835  91.9827 268.2645 15.13552797423943
S-Net B
1 43187U 18014H   25303.27148427  .00009524  00000-0  53411-3 0  9992
2 43187  97.5482 204.7149 0011525  88.3002 271.9549 15.13528670423949
S-Net A
1 43188U 18014J   25303.26399213  .00009163  00000-0  51365-3 0  9998
2 43188  97.5489 204.8775 0011462  88.9937 271.2607 15.13558060423940
S-Net C
1 43189U 18014K   25303.27429613  .00009563  00000-0  53623-3 0  9991
2 43189  97.5506 204.9257 0012835  82.8642 277.4048 15.13521758422498
Ten-Koh
1 43677U 18084G   25303.73088240  .00004190  00000-0  32973-3 0  9994
2 43677  98.0687 121.6487 0009361 148.4357 211.7429 15.01386544381710
PO-101
1 43678U 18084H   25303.80513997  .00003993  00000-0  33347-3 0  9991
2 43678  98.1103 125.5397 0007941 153.6693 206.4934 14.99134647381837
QO-100
1 43700U 18090A   25303.77753080  .00000154  00000-0  00000+0 0  9991
2 43700   0.0160 253.0882 0001939   1.5225  90.4602  1.00269378 25372
MinXSS-2
1 43758U 18099A   25303.67537620  .00031048  00000-0  10160-2 0  9999
2 43758  97.4856  10.5392 0010339  17.2077 342.9513 15.31584032378825
AO-95
1 43770U 18099N   25303.11370050  .00016426  00000-0  75453-3 0  9994
2 43770  97.4743 359.7528 0011283  78.8490 281.4013 15.20406300378184
SNUSat 2
1 43782U 18099AA  25303.14416051  .00012027  00000-0  60820-3 0  9997
2 43782  97.4426 355.3178 0011942  27.5271 332.6592 15.17128137378094
SnugLite
1 43784U 18099AC  25303.11158511  .00016019  00000-0  72926-3 0  9995
2 43784  97.4236 355.1898 0003845  42.4578 317.6955 15.20770417378275
ITASat 1
1 43786U 18099AE  25303.12275390  .00010062  00000-0  53904-3 0  9990
2 43786  97.4391 354.3584 0015260  75.5706 284.7219 15.15097855378028
EAGLET 1
1 43790U 18099AJ  25303.12412525  .00006151  00000-0  37666-3 0  9999
2 43790  97.4591 353.7869 0013128  64.1931 296.0652 15.10478327377577
ESEO
1 43792U 18099AL  25303.81737076  .00002980  00000-0  22407-3 0  9991
2 43792  97.4286 345.7454 0013129  39.2387 320.9788 15.03223142377336
JO-97
1 43803U 18099AX  25303.14009102  .00020080  00000-0  80829-3 0  9995
2 43803  97.4486   1.1463 0006925  18.2499 341.8986 15.24891694378464
Suomi 100
1 43804U 18099AY  25303.14689068  .00015796  00000-0  69825-3 0  9992
2 43804  97.4553 359.9829 0011680  18.3227 341.8428 15.21730967378355
ISAT
1 43879U 18111D   25303.71311991  .00046251  00000-0  12466-2 0  9997
2 43879  97.5875 221.8385 0010539  62.0571 298.1738 15.37621688375620
UWE-4
1 43880U 18111E   25303.74740336  .00031737  00000-0  10384-2 0  9991
2 43880  97.5821 219.1833 0013505  69.9840 290.2853 15.31546771375491
Sparrow
1 43881U 18111F   25303.75477149  .00049847  00000-0  12647-2 0  9997
2 43881  97.6052 225.3925 0009498  87.2224 273.0109 15.39476832375744
Prox-1
1 44339U 19036A   25303.81911352  .00020982  00000-0  24503-2 0  9992
2 44339  23.9954 198.6799 0007058 271.4067  88.5622 14.83587210339288
Taurus 1
1 44530U 19059C   25303.84874028  .00011536  00000-0  20132-2 0  9990
2 44530  98.6215  90.3785 0008703 308.1618  51.8800 14.68109042324945
Duchifat 3
1 44854U 19089C   25303.89028606  .00260265  00000-0  19199-2 0  9996
2 44854  36.9318 152.5463 0009515 326.1517  33.8640 15.71238529325331
TO-108
1 44881U 19093C   25303.80829449  .00001517  00000-0  17959-3 0  9992
2 44881  97.7803  16.3939 0014962 118.6937 241.5784 14.85952491317346
FloripaSat 1
1 44885U 19093G   25303.84120647  .00011029  00000-0  88026-3 0  9996
2 44885  97.8071  31.8514 0011647 103.7442 256.5079 15.00408930318214
RS-44
1 44909U 19096E   25303.23317548  .00000024  00000-0  56202-4 0  9992
2 44909  82.5181 132.5230 0216897 322.2558  36.3494 12.79744913272938
SALSAT
1 46495U 20068K   25303.18206547  .00013613  00000-0  54329-3 0  9990
2 46495  97.8766 288.1474 0012062  36.4582 323.7473 15.25233422280240
CSS (TIANHE-1)
1 48274U 21035A   25303.80735579  .00041138  00000-0  49492-3 0  9991
2 48274  41.4664 277.4712 0006911 296.0996  63.9131 15.60035424257322
TUBIN
1 48900U 21059X   25303.84862646  .00202247  00000-0  99535-3 0  9996
2 48900  97.6709 126.5279 0001679  55.1202 305.0223 15.81609780242492
CUTE
1 49263U 21088D   25303.70931939  .00036344  00000-0  54323-3 0  9997
2 49263  97.4384  24.7453 0006795  76.1188 284.0822 15.54912179226600
